Stations météo

réclame
Mon MeteoGroup
Edinburgh/Gogarbank, Grande-Bretagne (3166): Température de l'air & dewpoint: 14.01.2021 05:00:00 - 20.01.2021 05:00:00 (GMT)Edinburgh/Gogarbank, Grande-Bretagne (3166): Température de l'air -20cm & Température de l'air -100cm: 14.01.2021 05:00:00 - 20.01.2021 05:00:00 (GMT)Edinburgh/Gogarbank, Grande-Bretagne (3166): Vitesse du vent & gusts: 14.01.2021 05:00:00 - 20.01.2021 05:00:00 (GMT)Edinburgh/Gogarbank, Grande-Bretagne (3166): Direction du vent: 14.01.2021 05:00:00 - 20.01.2021 05:00:00 (GMT)Edinburgh/Gogarbank, Grande-Bretagne (3166): reduced air pressure: 14.01.2021 05:00:00 - 20.01.2021 05:00:00 (GMT)Edinburgh/Gogarbank, Grande-Bretagne (3166): visibility: 14.01.2021 05:00:00 - 20.01.2021 05:00:00 (GMT)Edinburgh/Gogarbank, Grande-Bretagne (3166): Ensoleillement: 14.01.2021 05:00:00 - 20.01.2021 05:00:00 (GMT)Edinburgh/Gogarbank, Grande-Bretagne (3166): Quantités de précipitations: 14.01.2021 05:00:00 - 20.01.2021 05:00:00 (GMT)
Date & Time tt [°C] td [°C] tt -20cm [°C] tt -100cm [°C] ff [km/h] ff [knt] fx [km/h] fx [knt] dd ppp [hPa] vv [km] sd [min] rr [mm]
20.01.2021 05:00:00 0,3 0,1 - - 4 2 - - W 982,3 1,3 0 0,0
20.01.2021 04:00:00 0,3 0,1 - - 4 2 - - S 982,6 2,2 0 0,0
20.01.2021 03:00:00 0,2 -0,1 - - 4 2 - - W 983,0 2,5 0 0,0
20.01.2021 02:00:00 0,1 -0,2 - - 2 1 - - NNW 983,5 0,4 0 0,2
20.01.2021 01:00:00 0,2 -0,1 - - 0 0 - - N 984,1 0,6 0 0,0
20.01.2021 00:00:00 0,2 -0,1 - - 0 0 - - N 984,9 0,9 - 0,2
19.01.2021 23:00:00 0,3 -0,1 - - 4 2 - - ENE 985,6 0,7 0 0,2
19.01.2021 22:00:00 0,6 0,2 - - 5 3 - - ENE 986,3 2,8 0 1,0
19.01.2021 21:00:00 0,8 0,1 - - 2 1 - - ESE 987,1 3,2 0 1,2
19.01.2021 20:00:00 1,5 0,8 - - 9 5 - - E 988,0 7 0 1,2
19.01.2021 19:00:00 2,3 1,7 - - 11 6 - - E 988,7 11 0 0,6
19.01.2021 18:00:00 2,5 2,0 - - 5 3 - - E 989,5 7 0 0,6
19.01.2021 17:00:00 2,8 2,4 - - 4 2 - - ESE 990,6 11 0 0,6
19.01.2021 16:00:00 3,1 2,7 - - 2 1 - - NE 991,9 3,8 0 0,4
19.01.2021 15:00:00 3,1 2,8 - - 0 0 - - N 992,6 10 0 0,0
19.01.2021 14:00:00 2,7 2,4 - - 0 0 - - N 993,7 12 0 0,0
19.01.2021 13:00:00 2,2 1,8 - - 2 1 - - NNE 994,8 11 0 0,0
19.01.2021 12:00:00 2,2 1,9 - - 0 0 - - N 995,8 10 0 0,0
19.01.2021 11:00:00 1,7 1,3 - - 2 1 - - N 996,6 15 0 0,0
19.01.2021 10:00:00 1,5 1,0 - - 4 2 - - SW 997,0 30 0 0,0
19.01.2021 09:00:00 1,3 0,2 4,0 5,2 5 3 - - N 997,6 16 0 0,0
19.01.2021 08:00:00 2,8 2,0 - - 8 4 - - SSW 997,9 40 0 0,0
19.01.2021 07:00:00 3,4 2,8 - - 8 4 - - SSW 998,0 30 0 0,0
19.01.2021 06:00:00 2,3 1,6 - - 4 2 - - N 998,7 21 0 0,0
19.01.2021 05:00:00 3,3 2,4 - - 4 2 - - WSW 998,9 30 0 0,0
19.01.2021 04:00:00 4,1 3,2 - - 8 4 - - SW 999,1 40 0 0,0
19.01.2021 03:00:00 4,6 3,8 - - 11 6 - - SW 999,5 40 0 0,0
19.01.2021 02:00:00 4,8 4,3 - - 11 6 - - SW 1000,2 22 0 0,2
19.01.2021 01:00:00 4,6 4,1 - - 8 4 - - SSW 1001,1 12 0 0,2
19.01.2021 00:00:00 4,4 3,6 - - 5 3 - - NW 1002,2 14 - 0,0
18.01.2021 23:00:00 4,5 3,5 - - 8 4 - - WNW 1002,9 27 0 0,0
18.01.2021 22:00:00 4,5 3,1 - - 8 4 - - W 1003,7 45 0 0,0
18.01.2021 21:00:00 5,0 3,6 - - 18 10 - - SW 1004,4 27 0 0,0
18.01.2021 20:00:00 5,1 3,3 - - 15 8 - - SW 1005,1 30 0 0,0
18.01.2021 19:00:00 5,3 3,0 - - 15 8 - - SW 1005,8 21 0 0,0
18.01.2021 18:00:00 5,4 2,8 - - 24 13 - - SW 1006,2 60 0 0,2
18.01.2021 17:00:00 5,6 2,8 - - 26 14 46 25 SW 1007,0 55 0 0,0
18.01.2021 16:00:00 6,2 3,4 - - 24 13 - - WSW 1007,7 55 0 0,0
18.01.2021 15:00:00 6,2 4,5 - - 24 13 - - WSW 1008,3 13 0 0,0
18.01.2021 14:00:00 6,2 4,4 - - 18 10 - - WSW 1009,2 9 0 0,2
18.01.2021 13:00:00 6,1 4,4 - - 16 9 - - SW 1010,5 5 0 0,0
18.01.2021 12:00:00 6,7 3,4 - - 26 14 - - WSW 1011,0 30 6 0,0
18.01.2021 11:00:00 6,5 3,1 - - 24 13 - - SW 1011,5 28 36 0,0
18.01.2021 10:00:00 5,2 2,6 - - 16 9 - - SW 1012,3 24 0 0,0
18.01.2021 09:00:00 4,6 2,4 3,7 5,2 18 10 - - SW 1012,5 24 0 0,0
18.01.2021 08:00:00 4,7 2,7 - - 16 9 - - SW 1012,7 27 0 0,0
18.01.2021 07:00:00 4,9 3,2 - - 18 10 - - SW 1012,8 28 0 0,0
18.01.2021 06:00:00 4,5 3,0 - - 21 11 - - WSW 1012,8 45 0 0,0
18.01.2021 05:00:00 5,0 3,6 - - 21 11 - - WSW 1013,1 65 0 1,0
18.01.2021 04:00:00 5,8 4,5 - - 24 13 48 26 W 1013,3 5 0 0,6
18.01.2021 03:00:00 6,2 4,4 - - 26 14 - - WSW 1013,1 6 0 0,2
18.01.2021 02:00:00 6,4 4,1 - - 26 14 - - WSW 1013,5 40 0 0,0
18.01.2021 01:00:00 6,5 4,3 - - 24 13 46 25 WSW 1014,1 30 0 0,0
18.01.2021 00:00:00 6,5 4,6 - - 26 14 - - WSW 1014,7 16 - 0,2
17.01.2021 23:00:00 6,7 3,9 - - 31 17 52 28 WSW 1015,3 30 0 0,0
17.01.2021 22:00:00 6,4 5,0 - - 21 11 - - WSW 1015,9 40 0 0,0
17.01.2021 21:00:00 6,3 4,1 - - 21 11 - - WSW 1016,6 45 0 0,0
17.01.2021 20:00:00 6,4 4,7 - - 26 14 46 25 WSW 1016,7 35 0 0,0
17.01.2021 19:00:00 6,4 4,9 - - 24 13 48 26 WSW 1017,0 21 0 0,2
17.01.2021 18:00:00 6,2 4,4 - - 24 13 - - WSW 1017,1 15 0 0,0
17.01.2021 17:00:00 6,1 3,9 - - 24 13 - - WSW 1017,4 24 0 0,0
17.01.2021 16:00:00 6,3 3,9 - - 22 12 - - SW 1018,2 19 0 0,0
17.01.2021 15:00:00 6,7 3,3 - - 18 10 - - WSW 1018,5 35 0 0,0
17.01.2021 14:00:00 6,5 3,2 - - 18 10 - - WSW 1018,9 35 24 0,0
17.01.2021 13:00:00 6,4 2,8 - - 22 12 - - WSW 1019,1 35 30 0,0
17.01.2021 12:00:00 5,4 2,2 - - 18 10 - - WSW 1019,9 35 0 0,0
17.01.2021 11:00:00 5,0 1,9 - - 24 13 - - WSW 1019,7 35 0 0,0
17.01.2021 10:00:00 4,3 1,4 - - 22 12 - - WSW 1019,2 35 0 0,0
17.01.2021 09:00:00 3,9 1,2 3,5 5,2 22 12 - - WSW 1018,6 40 0 0,0
17.01.2021 08:00:00 3,5 1,2 - - 22 12 - - WSW 1017,7 40 0 0,0
17.01.2021 07:00:00 3,4 1,0 - - 18 10 - - WSW 1017,0 40 0 0,0
17.01.2021 06:00:00 3,5 1,0 - - 18 10 - - SW 1016,3 40 0 0,0
17.01.2021 05:00:00 3,6 1,2 - - 22 12 - - WSW 1015,7 35 0 0,0
17.01.2021 04:00:00 3,6 1,3 - - 21 11 - - WSW 1015,0 35 0 0,0
17.01.2021 03:00:00 3,6 1,6 - - 22 12 - - WSW 1014,2 35 0 0,0
17.01.2021 02:00:00 3,8 1,4 - - 22 12 - - WSW 1013,7 35 0 0,0
17.01.2021 01:00:00 4,1 1,3 - - 24 13 - - WSW 1013,1 45 0 0,0
17.01.2021 00:00:00 4,2 1,4 - - 21 11 - - WSW 1012,7 40 - 0,0
16.01.2021 23:00:00 4,6 1,6 - - 22 12 - - WSW 1012,1 35 0 0,0
16.01.2021 22:00:00 4,8 1,9 - - 21 11 - - WSW 1011,6 30 0 0,0
16.01.2021 21:00:00 4,6 1,9 - - 22 12 - - WSW 1010,9 29 0 0,0
16.01.2021 20:00:00 4,9 1,7 - - 24 13 - - WSW 1010,3 26 0 0,0
16.01.2021 19:00:00 5,3 1,6 - - 26 14 - - WSW 1010,1 29 0 0,0
16.01.2021 18:00:00 5,7 2,1 - - 21 11 - - WSW 1009,7 23 0 0,0
16.01.2021 17:00:00 6,3 2,9 - - 29 16 50 27 W 1008,7 27 0 0,0
16.01.2021 16:00:00 7,0 3,7 - - 31 17 57 31 W 1007,9 29 12 0,0
16.01.2021 15:00:00 7,9 4,2 - - 31 17 57 31 W 1006,7 30 18 0,0
16.01.2021 14:00:00 8,4 5,0 - - 34 18 57 31 W 1006,0 30 6 0,0
16.01.2021 13:00:00 8,7 5,8 - - 37 20 52 28 W 1005,4 28 12 0,0
16.01.2021 12:00:00 8,5 6,3 - - 34 18 54 29 W 1005,0 40 12 0,0
16.01.2021 11:00:00 7,8 6,2 - - 26 14 46 25 SW 1005,0 15 6 0,0
16.01.2021 10:00:00 7,3 5,0 - - 22 12 - - WSW 1005,2 35 0 0,0
16.01.2021 09:00:00 6,7 4,7 3,0 5,2 21 11 - - SW 1005,5 40 0 0,0
16.01.2021 08:00:00 5,4 3,4 - - 21 11 50 27 SW 1005,4 70 0 0,0
16.01.2021 07:00:00 5,4 2,8 - - 29 16 54 29 SSW 1005,4 75 0 0,2
16.01.2021 06:00:00 5,1 2,6 - - 26 14 48 26 SSW 1005,3 35 0 0,4
16.01.2021 05:00:00 4,1 2,3 - - 11 6 - - S 1006,6 8 0 1,4
16.01.2021 04:00:00 3,6 1,7 - - 15 8 - - S 1008,8 7 0 0,8
16.01.2021 03:00:00 3,1 1,2 - - 18 10 - - SE 1011,4 5 0 0,8
16.01.2021 02:00:00 2,2 1,5 - - 4 2 - - E 1013,5 6 0 0,4
16.01.2021 01:00:00 1,7 0,4 - - 5 3 - - NNE 1015,2 9 0 0,6
16.01.2021 00:00:00 2,1 0,2 - - 11 6 - - E 1016,7 9 - 0,2
15.01.2021 23:00:00 1,8 -1,2 - - 8 4 - - E 1018,6 40 0 0,0
15.01.2021 22:00:00 1,7 -1,7 - - 13 7 - - ESE 1019,9 50 0 0,0
15.01.2021 21:00:00 0,0 -1,3 - - 9 5 - - ESE 1021,7 18 0 0,0
15.01.2021 20:00:00 -0,1 -1,5 - - 2 1 - - SW 1023,1 21 0 0,0
15.01.2021 19:00:00 -0,2 -1,7 - - 5 3 - - E 1023,7 24 0 0,0
15.01.2021 18:00:00 -0,1 -1,6 - - 4 2 - - ESE 1024,6 21 0 0,0
15.01.2021 17:00:00 0,2 -1,7 - - 2 1 - - SSE 1025,3 18 0 0,0
15.01.2021 16:00:00 1,8 -1,2 - - 2 1 - - SW 1025,7 30 0 0,0
15.01.2021 15:00:00 3,2 -0,3 - - 8 4 - - SSW 1026,1 40 0 0,0
15.01.2021 14:00:00 3,2 0,6 - - 4 2 - - ESE 1027,0 35 0 0,0
15.01.2021 13:00:00 3,0 0,4 - - 8 4 - - SW 1027,9 45 0 0,0
15.01.2021 12:00:00 3,0 0,6 - - 11 6 - - SW 1028,5 40 0 0,0
15.01.2021 11:00:00 3,0 1,0 - - 11 6 - - SSW 1028,8 55 0 0,0
15.01.2021 10:00:00 2,8 0,8 - - 13 7 - - SSW 1028,5 65 0 0,0
15.01.2021 09:00:00 2,1 0,7 3,0 5,2 9 5 - - SW 1028,6 50 0 0,0
15.01.2021 08:00:00 1,6 0,5 - - 9 5 - - WSW 1028,3 35 0 0,0
15.01.2021 07:00:00 1,2 0,3 - - 5 3 - - SW 1028,0 20 0 0,0
15.01.2021 06:00:00 1,1 0,2 - - 5 3 - - SW 1028,0 22 0 0,0
15.01.2021 05:00:00 1,2 0,2 - - 9 5 - - SW 1028,0 26 0 0,0
15.01.2021 04:00:00 0,7 0,3 - - 8 4 - - SW 1028,0 20 0 0,0
15.01.2021 03:00:00 -0,3 -0,6 - - 0 0 - - N 1027,9 14 0 0,0
15.01.2021 02:00:00 -1,6 -2,0 - - 0 0 - - N 1027,5 8 0 0,0
15.01.2021 01:00:00 -0,8 -1,2 - - 5 3 - - SW 1027,2 14 0 0,0
15.01.2021 00:00:00 -0,4 -0,9 - - 5 3 - - NW 1027,1 10 - 0,0
14.01.2021 23:00:00 -0,1 -0,6 - - 4 2 - - W 1026,7 15 0 0,0
14.01.2021 22:00:00 0,4 -0,2 - - 4 2 - - SSW 1026,4 19 0 0,0
14.01.2021 21:00:00 1,0 0,6 - - 5 3 - - SW 1026,0 15 0 0,0
14.01.2021 20:00:00 0,9 0,5 - - 4 2 - - SW 1025,3 7 0 0,0
14.01.2021 19:00:00 1,1 0,6 - - 2 1 - - SSE 1024,9 4,2 0 0,0
14.01.2021 18:00:00 1,3 0,7 - - 2 1 - - W 1024,5 6 0 0,2
14.01.2021 17:00:00 2,1 1,4 - - 2 1 - - WSW 1023,9 7 0 0,0
14.01.2021 16:00:00 2,3 1,3 - - 2 1 - - E 1022,8 28 0 0,0
14.01.2021 15:00:00 2,6 1,5 - - 8 4 - - E 1022,0 25 0 0,0
14.01.2021 14:00:00 2,8 1,6 - - 8 4 - - E 1021,4 30 0 0,0
14.01.2021 13:00:00 2,7 1,5 - - 5 3 - - ENE 1020,7 75 0 0,2
14.01.2021 12:00:00 2,6 1,6 - - 9 5 - - E 1020,3 50 0 0,0
14.01.2021 11:00:00 2,5 1,6 - - 8 4 - - E 1019,6 70 0 0,0
14.01.2021 10:00:00 2,2 1,8 - - 9 5 - - E 1018,6 26 0 0,4
14.01.2021 09:00:00 1,7 1,3 3,0 5,4 11 6 - - ENE 1017,7 18 0 0,4
14.01.2021 08:00:00 1,2 0,7 - - 11 6 - - E 1016,8 7 0 0,8
14.01.2021 07:00:00 1,0 0,6 - - 9 5 - - ENE 1016,3 8 0 1,4
14.01.2021 06:00:00 1,6 1,0 - - 13 7 - - ENE 1015,8 5 0 1,2
14.01.2021 05:00:00 1,8 1,1 - - 15 8 - - ENE 1015,0 9 0 0,6

tt = Température de l'air
td = dewpoint
tt -20cm = Température de l'air -20cm
tt -100cm = Température de l'air -100cm
ff = Vitesse du vent
fx = gusts
dd = Direction du vent
ppp = reduced air pressure
vv = visibility
sd = Ensoleillement
rr = Quantités de précipitations

stations d'obs. à proximité